Regional Weather Roundup
Issued by NWS

Home | Current Version | Previous Version | Text Only | Print | Product List | Glossary Off
Versions: 1 2 3 4 5 6 7 8 9 10 11 12 13 14 15 16 17 18 19 20 21 22 23 24 25 26 27 28 29 30 31 32 33 34 35 36 37 38 39 40 41 42 43 44 45 46 47 48 49 50

000
ASUS43 KLMK 201602
RWRKY
KENTUCKY REGIONAL WEATHER ROUNDUP
NATIONAL WEATHER SERVICE LOUISVILLE KY
1200 PM EDT WED AUG 20 2014

NOTE "FAIR" INDICATES FEW OR NO CLOUDS BELOW 12,000 FEET
WITH NO SIGNIFICANT WEATHER AND/OR OBSTRUCTIONS TO VISIBILITY.

KYZ001>023-026-027-061>063-070>075-201700-
WESTERN AND SOUTH CENTRAL KENTUCKY

CITY           SKY/WX    TMP DP  RH WIND       PRES   REMARKS
PADUCAH        PTSUNNY   87  75  67 W7        29.97R HX  96
HENDERSON      CLOUDY    84  75  74 W6        29.96R HX  92
OWENSBORO      MOSUNNY   85  78  79 CALM      29.97R HX  96
HOPKINSVILLE   MOSUNNY   88  78  70 W10       29.98R HX 101
BOWLING GREEN  PTSUNNY   84  75  74 SW6       29.98R HX  92
GLASGOW        CLOUDY    82  74  76 SW8       30.00R
$$

KYZ024-025-028>034-038-045-046-053-201700-
NORTH CENTRAL KENTUCKY

CITY           SKY/WX    TMP DP  RH WIND       PRES   REMARKS
LOUISVILLE/SDF MOSUNNY   86  72  62 CALM      29.96S HX  92
LOUISVILLE/LOU SUNNY     84  72  67 W3        29.96S
FORT KNOX      MOSUNNY   85  74  68 CALM      29.96S HX  93
$$

KYZ035>037-039>044-047>052-055>060-089>105-201700-
NORTHEAST KENTUCKY

CITY           SKY/WX    TMP DP  RH WIND       PRES   REMARKS
LEXINGTON      PTSUNNY   83  73  72 SW7       30.00R
COVINGTON      MOSUNNY   79  71  76 SW6       29.97R
FRANKFORT      PTSUNNY   81  72  74 W3        29.97S
$$

KYZ054-064>069-076>088-106>120-201700-
SOUTHEAST KENTUCKY

CITY           SKY/WX    TMP DP  RH WIND       PRES   REMARKS
JACKSON        CLOUDY    76  70  82 VRB5      30.04R
LONDON         PTSUNNY   84  72  67 VRB7      30.02S
SOMERSET       MOSUNNY   82  73  74 SW6       30.02S
MIDDLESBORO    MOSUNNY   79  72  79 S10       30.05S
MONTICELLO     MOSUNNY   85  75  71 SW8       30.03S HX  93
$$




USA.gov is the U.S. government's official web portal to all federal, state and local government web resources and services.